Location: Chmeln�
(49.6483°N, 14.9871°E)
Time: 06:11:33
(UTC+00:00)

SL-08 RB Rocket - Pass Details

Date: 18 September 2020
Orbit: 646 x 685 km, 97.8° (Epoch: 22 October)

Event Time Altitude Azimuth Distance (km) Brightness Sun altitude
Exits shadow 17:54:37 - 149° (SSE) 2,980 6.6 -8.6°
Reaches altitude 10° 17:56:49 10° 144° (SE) 2,103 5.8 -9.0°
Maximum altitude 18:01:13 49° 70° (ENE) 870 4.0 -9.7°
Drops below altitude 10° 18:05:38 10° 356° (N) 2,095 6.5 -10.3°
Sets 18:07:54 0° 351° (N) 3,006 7.4 -10.7°
